Time,TemperatureF,DewpointF,PressureIn,WindDirection,WindDirectionDegrees,WindSpeedMPH,WindSpeedGustMPH,Humidity,HourlyPrecipIn,Conditions,Clouds,dailyrainin,SoftwareType,DateUTC
2013-11-16 00:01:00,50.4,37.9,30.20,SE,144,2.0,3.0,62,0.00,,,0.00,Wunderground v.1.15,2013-11-16 05:01:00,
2013-11-16 00:02:00,50.4,38.3,30.20,SE,144,2.0,3.0,63,0.00,,,0.00,Wunderground v.1.15,2013-11-16 05:02:00,
2013-11-16 00:03:00,50.5,38.4,30.20,SE,144,2.0,3.0,63,0.00,,,0.00,Wunderground v.1.15,2013-11-16 05:03:00,
2013-11-16 00:05:00,50.5,38.4,30.20,SE,144,1.0,3.0,63,0.00,,,0.00,Wunderground v.1.15,2013-11-16 05:05:00,
2013-11-16 00:09:00,50.4,37.9,30.20,SSE,149,1.0,3.0,62,0.00,,,0.00,Wunderground v.1.15,2013-11-16 05:09:00,
2013-11-16 00:14:00,50.4,38.3,30.20,SE,139,0.0,2.0,63,0.00,,,0.00,Wunderground v.1.15,2013-11-16 05:14:00,
2013-11-16 00:20:00,50.2,38.9,30.21,SSE,168,0.0,0.0,65,0.00,,,0.00,Wunderground v.1.15,2013-11-16 05:20:00,
2013-11-16 00:22:00,50.1,38.8,30.21,SSE,168,0.0,0.0,65,0.00,,,0.00,Wunderground v.1.15,2013-11-16 05:22:00,
2013-11-16 00:28:00,49.8,38.9,30.21,SSE,167,0.0,1.0,66,0.00,,,0.00,Wunderground v.1.15,2013-11-16 05:28:00,
2013-11-16 00:33:00,49.6,39.1,30.21,South,190,0.0,0.0,67,0.00,,,0.00,Wunderground v.1.15,2013-11-16 05:33:00,
2013-11-16 00:39:00,49.4,38.5,30.21,SSE,165,0.0,0.0,66,0.00,,,0.00,Wunderground v.1.15,2013-11-16 05:39:00,
2013-11-16 00:44:00,49.2,38.7,30.21,SSE,165,0.0,0.0,67,0.00,,,0.00,Wunderground v.1.15,2013-11-16 05:44:00,
2013-11-16 00:50:00,48.8,38.7,30.22,SSE,165,0.0,0.0,68,0.00,,,0.00,Wunderground v.1.15,2013-11-16 05:50:00,
2013-11-16 00:55:00,48.5,38.0,30.22,SSE,165,0.0,0.0,67,0.00,,,0.00,Wunderground v.1.15,2013-11-16 05:55:00,
2013-11-16 01:00:00,48.1,38.0,30.22,SSE,165,0.0,0.0,68,0.00,,,0.00,Wunderground v.1.15,2013-11-16 06:00:00,
2013-11-16 01:06:00,47.6,38.3,30.22,SSE,165,0.0,0.0,70,0.00,,,0.00,Wunderground v.1.15,2013-11-16 06:06:00,
2013-11-16 01:12:00,47.2,37.9,30.22,NE,40,0.0,1.0,70,0.00,,,0.00,Wunderground v.1.15,2013-11-16 06:12:00,
2013-11-16 01:17:00,46.8,37.9,30.22,SSE,151,0.0,1.0,71,0.00,,,0.00,Wunderground v.1.15,2013-11-16 06:17:00,
2013-11-16 01:22:00,46.4,37.9,30.22,SSE,151,0.0,0.0,72,0.00,,,0.00,Wunderground v.1.15,2013-11-16 06:22:00,
2013-11-16 01:27:00,46.0,37.5,30.22,SSE,151,0.0,0.0,72,0.00,,,0.00,Wunderground v.1.15,2013-11-16 06:27:00,
2013-11-16 01:33:00,45.9,38.1,30.23,West,276,0.0,1.0,74,0.00,,,0.00,Wunderground v.1.15,2013-11-16 06:33:00,
2013-11-16 01:38:00,45.8,38.3,30.23,North,355,0.0,1.0,75,0.00,,,0.00,Wunderground v.1.15,2013-11-16 06:38:00,
2013-11-16 01:43:00,45.6,38.1,30.23,North,355,0.0,0.0,75,0.00,,,0.00,Wunderground v.1.15,2013-11-16 06:43:00,
2013-11-16 01:49:00,45.3,38.2,30.23,North,355,0.0,0.0,76,0.00,,,0.00,Wunderground v.1.15,2013-11-16 06:49:00,
2013-11-16 01:54:00,45.0,38.2,30.22,North,355,0.0,0.0,77,0.00,,,0.00,Wunderground v.1.15,2013-11-16 06:54:00,
2013-11-16 01:59:00,44.6,38.2,30.22,North,355,0.0,1.0,78,0.00,,,0.00,Wunderground v.1.15,2013-11-16 06:59:00,
2013-11-16 02:05:00,44.2,38.1,30.22,North,355,0.0,0.0,79,0.00,,,0.00,Wunderground v.1.15,2013-11-16 07:05:00,
2013-11-16 02:10:00,43.8,38.0,30.22,North,355,0.0,0.0,80,0.00,,,0.00,Wunderground v.1.15,2013-11-16 07:10:00,
2013-11-16 02:15:00,43.5,38.1,30.22,North,355,0.0,0.0,81,0.00,,,0.00,Wunderground v.1.15,2013-11-16 07:15:00,
2013-11-16 02:21:00,43.3,37.9,30.22,North,355,0.0,0.0,81,0.00,,,0.00,Wunderground v.1.15,2013-11-16 07:21:00,
2013-11-16 02:27:00,43.0,37.6,30.22,North,355,0.0,0.0,81,0.00,,,0.00,Wunderground v.1.15,2013-11-16 07:27:00,
2013-11-16 02:32:00,42.8,37.7,30.22,North,355,0.0,0.0,82,0.00,,,0.00,Wunderground v.1.15,2013-11-16 07:32:00,
2013-11-16 02:37:00,42.6,37.8,30.22,North,355,0.0,0.0,83,0.00,,,0.00,Wunderground v.1.15,2013-11-16 07:37:00,
2013-11-16 02:43:00,42.4,37.6,30.22,North,355,0.0,0.0,83,0.00,,,0.00,Wunderground v.1.15,2013-11-16 07:43:00,
2013-11-16 02:48:00,42.3,37.8,30.22,North,355,0.0,0.0,84,0.00,,,0.00,Wunderground v.1.15,2013-11-16 07:48:00,
2013-11-16 02:53:00,42.3,37.8,30.22,North,355,0.0,0.0,84,0.00,,,0.00,Wunderground v.1.15,2013-11-16 07:53:00,
2013-11-16 02:58:00,42.1,37.6,30.21,North,355,0.0,0.0,84,0.00,,,0.00,Wunderground v.1.15,2013-11-16 07:58:00,
2013-11-16 03:04:00,41.9,37.7,30.21,North,355,0.0,0.0,85,0.00,,,0.00,Wunderground v.1.15,2013-11-16 08:04:00,
2013-11-16 03:09:00,41.7,37.5,30.21,North,355,0.0,0.0,85,0.00,,,0.00,Wunderground v.1.15,2013-11-16 08:09:00,
2013-11-16 03:15:00,41.8,37.6,30.20,North,355,0.0,0.0,85,0.00,,,0.00,Wunderground v.1.15,2013-11-16 08:15:00,
2013-11-16 03:20:00,41.6,37.7,30.20,North,355,0.0,0.0,86,0.00,,,0.00,Wunderground v.1.15,2013-11-16 08:20:00,
2013-11-16 03:25:00,41.6,37.7,30.20,North,355,0.0,0.0,86,0.00,,,0.00,Wunderground v.1.15,2013-11-16 08:25:00,
2013-11-16 03:30:00,41.5,37.6,30.20,North,355,0.0,0.0,86,0.00,,,0.00,Wunderground v.1.15,2013-11-16 08:30:00,
2013-11-16 03:36:00,41.5,37.9,30.20,North,355,0.0,0.0,87,0.00,,,0.00,Wunderground v.1.15,2013-11-16 08:36:00,
2013-11-16 03:41:00,41.3,37.4,30.20,North,355,0.0,0.0,86,0.00,,,0.00,Wunderground v.1.15,2013-11-16 08:41:00,
2013-11-16 03:47:00,41.1,37.5,30.20,North,355,0.0,0.0,87,0.00,,,0.00,Wunderground v.1.15,2013-11-16 08:47:00,
2013-11-16 03:52:00,41.0,37.7,30.20,North,355,0.0,0.0,88,0.00,,,0.00,Wunderground v.1.15,2013-11-16 08:52:00,
2013-11-16 03:57:00,40.7,37.1,30.20,North,355,0.0,0.0,87,0.00,,,0.00,Wunderground v.1.15,2013-11-16 08:57:00,
2013-11-16 04:03:00,40.5,36.9,30.20,North,355,0.0,0.0,87,0.00,,,0.00,Wunderground v.1.15,2013-11-16 09:03:00,
2013-11-16 04:08:00,40.2,36.6,30.21,North,355,0.0,0.0,87,0.00,,,0.00,Wunderground v.1.15,2013-11-16 09:08:00,
2013-11-16 04:14:00,39.9,36.6,30.21,North,355,0.0,0.0,88,0.00,,,0.00,Wunderground v.1.15,2013-11-16 09:14:00,
2013-11-16 04:19:00,39.7,36.4,30.21,North,355,0.0,0.0,88,0.00,,,0.00,Wunderground v.1.15,2013-11-16 09:19:00,
2013-11-16 04:24:00,39.4,36.4,30.21,North,355,0.0,0.0,89,0.00,,,0.00,Wunderground v.1.15,2013-11-16 09:24:00,
2013-11-16 04:29:00,39.4,36.7,30.21,North,355,0.0,0.0,90,0.00,,,0.00,Wunderground v.1.15,2013-11-16 09:29:00,
2013-11-16 04:35:00,39.2,36.2,30.21,North,355,0.0,0.0,89,0.00,,,0.00,Wunderground v.1.15,2013-11-16 09:35:00,
2013-11-16 04:40:00,38.9,35.9,30.21,North,355,0.0,0.0,89,0.00,,,0.00,Wunderground v.1.15,2013-11-16 09:40:00,
2013-11-16 04:45:00,38.9,36.2,30.21,North,355,0.0,0.0,90,0.00,,,0.00,Wunderground v.1.15,2013-11-16 09:45:00,
2013-11-16 04:50:00,38.7,36.0,30.21,North,355,0.0,0.0,90,0.00,,,0.00,Wunderground v.1.15,2013-11-16 09:50:00,
2013-11-16 04:56:00,38.4,35.7,30.22,North,355,0.0,0.0,90,0.00,,,0.00,Wunderground v.1.15,2013-11-16 09:56:00,
2013-11-16 05:02:00,38.2,35.5,30.22,North,355,0.0,0.0,90,0.00,,,0.00,Wunderground v.1.15,2013-11-16 10:02:00,
2013-11-16 05:07:00,38.0,35.3,30.22,North,355,0.0,0.0,90,0.00,,,0.00,Wunderground v.1.15,2013-11-16 10:07:00,
2013-11-16 05:12:00,37.8,35.4,30.22,North,355,0.0,0.0,91,0.00,,,0.00,Wunderground v.1.15,2013-11-16 10:12:00,
2013-11-16 05:18:00,37.6,35.2,30.21,North,355,0.0,0.0,91,0.00,,,0.00,Wunderground v.1.15,2013-11-16 10:18:00,
2013-11-16 05:23:00,37.5,35.1,30.22,North,355,0.0,0.0,91,0.00,,,0.00,Wunderground v.1.15,2013-11-16 10:23:00,
2013-11-16 05:28:00,37.4,35.3,30.22,North,355,0.0,0.0,92,0.00,,,0.00,Wunderground v.1.15,2013-11-16 10:28:00,
2013-11-16 05:33:00,37.4,35.3,30.22,North,355,0.0,0.0,92,0.00,,,0.00,Wunderground v.1.15,2013-11-16 10:33:00,
2013-11-16 05:39:00,37.2,35.1,30.22,North,355,0.0,0.0,92,0.00,,,0.00,Wunderground v.1.15,2013-11-16 10:39:00,
2013-11-16 05:44:00,37.1,35.0,30.22,North,355,0.0,0.0,92,0.00,,,0.00,Wunderground v.1.15,2013-11-16 10:44:00,
2013-11-16 05:49:00,37.0,34.9,30.22,North,355,0.0,0.0,92,0.00,,,0.00,Wunderground v.1.15,2013-11-16 10:49:00,
2013-11-16 05:54:00,36.9,34.8,30.22,North,355,0.0,0.0,92,0.00,,,0.00,Wunderground v.1.15,2013-11-16 10:54:00,
2013-11-16 05:59:00,36.7,34.6,30.23,North,355,0.0,0.0,92,0.00,,,0.00,Wunderground v.1.15,2013-11-16 10:59:00,
2013-11-16 06:05:00,36.5,34.4,30.23,North,355,0.0,0.0,92,0.00,,,0.00,Wunderground v.1.15,2013-11-16 11:05:00,
2013-11-16 06:10:00,36.5,34.7,30.23,North,355,0.0,0.0,93,0.00,,,0.00,Wunderground v.1.15,2013-11-16 11:10:00,
2013-11-16 06:15:00,36.4,34.3,30.23,North,355,0.0,0.0,92,0.00,,,0.00,Wunderground v.1.15,2013-11-16 11:15:00,
2013-11-16 06:20:00,36.3,34.5,30.23,North,355,0.0,0.0,93,0.00,,,0.00,Wunderground v.1.15,2013-11-16 11:20:00,
2013-11-16 06:26:00,36.1,34.3,30.23,North,355,0.0,0.0,93,0.00,,,0.00,Wunderground v.1.15,2013-11-16 11:26:00,
2013-11-16 06:32:00,36.1,34.3,30.23,North,355,0.0,0.0,93,0.00,,,0.00,Wunderground v.1.15,2013-11-16 11:32:00,
2013-11-16 06:37:00,36.1,34.3,30.23,North,355,0.0,0.0,93,0.00,,,0.00,Wunderground v.1.15,2013-11-16 11:37:00,
2013-11-16 06:42:00,36.1,34.5,30.23,North,355,0.0,0.0,94,0.00,,,0.00,Wunderground v.1.15,2013-11-16 11:42:00,
2013-11-16 06:48:00,36.0,34.2,30.23,North,355,0.0,0.0,93,0.00,,,0.00,Wunderground v.1.15,2013-11-16 11:48:00,
2013-11-16 06:54:00,35.8,34.0,30.23,North,355,0.0,0.0,93,0.00,,,0.00,Wunderground v.1.15,2013-11-16 11:54:00,
2013-11-16 06:59:00,35.7,33.9,30.23,North,355,0.0,0.0,93,0.00,,,0.00,Wunderground v.1.15,2013-11-16 11:59:00,
2013-11-16 07:04:00,35.7,33.9,30.24,North,355,0.0,0.0,93,0.00,,,0.00,Wunderground v.1.15,2013-11-16 12:04:00,
2013-11-16 07:10:00,35.5,33.7,30.24,North,355,0.0,0.0,93,0.00,,,0.00,Wunderground v.1.15,2013-11-16 12:10:00,
2013-11-16 07:15:00,35.4,33.6,30.24,North,355,0.0,0.0,93,0.00,,,0.00,Wunderground v.1.15,2013-11-16 12:15:00,
2013-11-16 07:20:00,35.3,33.5,30.24,North,355,0.0,0.0,93,0.00,,,0.00,Wunderground v.1.15,2013-11-16 12:20:00,
2013-11-16 07:25:00,35.3,33.7,30.25,North,355,0.0,0.0,94,0.00,,,0.00,Wunderground v.1.15,2013-11-16 12:25:00,
2013-11-16 07:30:00,35.3,33.7,30.25,North,355,0.0,0.0,94,0.00,,,0.00,Wunderground v.1.15,2013-11-16 12:30:00,
2013-11-16 07:35:00,35.3,33.7,30.25,North,355,0.0,0.0,94,0.00,,,0.00,Wunderground v.1.15,2013-11-16 12:35:00,
2013-11-16 07:41:00,35.3,33.7,30.25,North,355,0.0,0.0,94,0.00,,,0.00,Wunderground v.1.15,2013-11-16 12:41:00,
2013-11-16 07:47:00,35.3,33.7,30.25,North,355,0.0,0.0,94,0.00,,,0.00,Wunderground v.1.15,2013-11-16 12:47:00,
2013-11-16 07:52:00,35.3,33.7,30.25,North,355,0.0,0.0,94,0.00,,,0.00,Wunderground v.1.15,2013-11-16 12:52:00,
2013-11-16 07:57:00,35.5,33.9,30.25,North,355,0.0,0.0,94,0.00,,,0.00,Wunderground v.1.15,2013-11-16 12:57:00,
2013-11-16 08:03:00,36.3,35.0,30.24,North,355,0.0,0.0,95,0.00,,,0.00,Wunderground v.1.15,2013-11-16 13:03:00,
2013-11-16 08:08:00,36.9,35.6,30.25,North,355,0.0,0.0,95,0.00,,,0.00,Wunderground v.1.15,2013-11-16 13:08:00,
2013-11-16 08:13:00,37.5,36.2,30.25,North,355,0.0,0.0,95,0.00,,,0.00,Wunderground v.1.15,2013-11-16 13:13:00,
2013-11-16 08:18:00,37.8,36.5,30.25,North,355,0.0,0.0,95,0.00,,,0.00,Wunderground v.1.15,2013-11-16 13:18:00,
2013-11-16 08:23:00,38.4,37.1,30.25,North,355,0.0,0.0,95,0.00,,,0.00,Wunderground v.1.15,2013-11-16 13:23:00,
2013-11-16 08:29:00,39.4,38.1,30.25,North,355,0.0,0.0,95,0.00,,,0.00,Wunderground v.1.15,2013-11-16 13:29:00,
2013-11-16 08:34:00,40.1,38.2,30.26,North,5,0.0,0.0,93,0.00,,,0.00,Wunderground v.1.15,2013-11-16 13:34:00,
2013-11-16 08:39:00,40.6,38.5,30.26,North,5,0.0,0.0,92,0.00,,,0.00,Wunderground v.1.15,2013-11-16 13:39:00,
2013-11-16 08:44:00,40.9,38.5,30.26,North,5,0.0,0.0,91,0.00,,,0.00,Wunderground v.1.15,2013-11-16 13:44:00,
2013-11-16 08:50:00,41.3,38.6,30.26,ENE,58,0.0,0.0,90,0.00,,,0.00,Wunderground v.1.15,2013-11-16 13:50:00,
2013-11-16 08:55:00,41.6,38.9,30.27,ENE,58,0.0,0.0,90,0.00,,,0.00,Wunderground v.1.15,2013-11-16 13:55:00,
2013-11-16 09:00:00,42.0,38.7,30.26,ENE,57,0.0,0.0,88,0.00,,,0.00,Wunderground v.1.15,2013-11-16 14:00:00,
2013-11-16 09:06:00,42.5,39.2,30.26,ENE,57,0.0,0.0,88,0.00,,,0.00,Wunderground v.1.15,2013-11-16 14:06:00,
2013-11-16 09:11:00,43.2,39.6,30.26,ENE,57,0.0,0.0,87,0.00,,,0.00,Wunderground v.1.15,2013-11-16 14:11:00,
2013-11-16 09:16:00,43.9,40.6,30.25,ENE,57,0.0,0.0,88,0.00,,,0.00,Wunderground v.1.15,2013-11-16 14:16:00,
2013-11-16 09:22:00,44.8,41.5,30.26,ENE,58,0.0,0.0,88,0.00,,,0.00,Wunderground v.1.15,2013-11-16 14:22:00,
2013-11-16 09:27:00,45.8,42.4,30.25,ENE,57,0.0,1.0,88,0.00,,,0.00,Wunderground v.1.15,2013-11-16 14:27:00,
2013-11-16 09:32:00,46.7,42.4,30.25,ENE,58,0.0,1.0,85,0.00,,,0.00,Wunderground v.1.15,2013-11-16 14:32:00,
2013-11-16 09:37:00,47.5,42.6,30.25,ENE,58,0.0,1.0,83,0.00,,,0.00,Wunderground v.1.15,2013-11-16 14:37:00,
2013-11-16 09:43:00,48.3,43.1,30.25,ENE,58,0.0,0.0,82,0.00,,,0.00,Wunderground v.1.15,2013-11-16 14:43:00,
2013-11-16 09:48:00,49.0,43.4,30.25,ENE,60,0.0,0.0,81,0.00,,,0.00,Wunderground v.1.15,2013-11-16 14:48:00,
2013-11-16 09:53:00,49.7,44.1,30.25,South,169,0.0,3.0,81,0.00,,,0.00,Wunderground v.1.15,2013-11-16 14:53:00,
2013-11-16 09:58:00,50.6,44.3,30.25,ESE,107,1.0,3.0,79,0.00,,,0.00,Wunderground v.1.15,2013-11-16 14:58:00,
2013-11-16 10:04:00,51.5,45.2,30.25,ESE,119,1.0,2.0,79,0.00,,,0.00,Wunderground v.1.15,2013-11-16 15:04:00,
2013-11-16 10:10:00,52.7,45.3,30.25,SE,130,0.0,1.0,76,0.00,,,0.00,Wunderground v.1.15,2013-11-16 15:10:00,
2013-11-16 10:15:00,53.5,45.4,30.25,SE,130,0.0,1.0,74,0.00,,,0.00,Wunderground v.1.15,2013-11-16 15:15:00,
2013-11-16 10:20:00,54.1,45.6,30.25,SE,130,0.0,0.0,73,0.00,,,0.00,Wunderground v.1.15,2013-11-16 15:20:00,
2013-11-16 10:26:00,54.7,46.2,30.25,SE,141,0.0,2.0,73,0.00,,,0.00,Wunderground v.1.15,2013-11-16 15:26:00,
2013-11-16 10:31:00,55.4,46.2,30.25,South,181,0.0,0.0,71,0.00,,,0.00,Wunderground v.1.15,2013-11-16 15:31:00,
2013-11-16 10:37:00,56.0,46.4,30.25,ESE,111,1.0,2.0,70,0.00,,,0.00,Wunderground v.1.15,2013-11-16 15:37:00,
2013-11-16 10:42:00,56.5,46.8,30.25,SSW,194,1.0,1.0,70,0.00,,,0.00,Wunderground v.1.15,2013-11-16 15:42:00,
2013-11-16 10:47:00,56.9,47.2,30.24,ESE,117,1.0,2.0,70,0.00,,,0.00,Wunderground v.1.15,2013-11-16 15:47:00,
2013-11-16 10:52:00,57.4,47.3,30.24,SSE,148,1.0,1.0,69,0.00,,,0.00,Wunderground v.1.15,2013-11-16 15:52:00,
2013-11-16 10:58:00,57.8,47.7,30.24,South,182,1.0,2.0,69,0.00,,,0.00,Wunderground v.1.15,2013-11-16 15:58:00,
2013-11-16 11:03:00,58.0,47.1,30.24,SSE,157,1.0,4.0,67,0.00,,,0.00,Wunderground v.1.15,2013-11-16 16:03:00,
2013-11-16 11:08:00,58.1,47.6,30.24,ESE,109,2.0,4.0,68,0.00,,,0.00,Wunderground v.1.15,2013-11-16 16:08:00,
2013-11-16 11:13:00,58.5,47.6,30.24,SE,140,1.0,3.0,67,0.00,,,0.00,Wunderground v.1.15,2013-11-16 16:13:00,
2013-11-16 11:19:00,59.1,47.7,30.24,SE,140,1.0,3.0,66,0.00,,,0.00,Wunderground v.1.15,2013-11-16 16:19:00,
2013-11-16 11:24:00,59.6,48.2,30.23,North,9,1.0,1.0,66,0.00,,,0.00,Wunderground v.1.15,2013-11-16 16:24:00,
2013-11-16 11:30:00,59.5,47.3,30.23,SSE,161,1.0,1.0,64,0.00,,,0.00,Wunderground v.1.15,2013-11-16 16:30:00,
2013-11-16 11:35:00,59.0,47.7,30.23,ESE,112,2.0,2.0,66,0.00,,,0.00,Wunderground v.1.15,2013-11-16 16:35:00,
2013-11-16 11:40:00,58.7,47.4,30.23,SSE,164,1.0,1.0,66,0.00,,,0.00,Wunderground v.1.15,2013-11-16 16:40:00,
2013-11-16 11:46:00,58.7,47.4,30.22,East,94,1.0,3.0,66,0.00,,,0.00,Wunderground v.1.15,2013-11-16 16:46:00,
2013-11-16 11:51:00,58.9,47.6,30.22,SE,130,1.0,1.0,66,0.00,,,0.00,Wunderground v.1.15,2013-11-16 16:51:00,
2013-11-16 11:57:00,59.1,47.3,30.22,East,99,1.0,2.0,65,0.00,,,0.00,Wunderground v.1.15,2013-11-16 16:57:00,
2013-11-16 12:02:00,59.0,47.2,30.22,ESE,119,1.0,5.0,65,0.00,,,0.00,Wunderground v.1.15,2013-11-16 17:02:00,
2013-11-16 12:07:00,59.1,47.7,30.22,ENE,69,1.0,5.0,66,0.00,,,0.00,Wunderground v.1.15,2013-11-16 17:07:00,
2013-11-16 12:13:00,59.2,47.4,30.21,SSE,151,1.0,2.0,65,0.00,,,0.00,Wunderground v.1.15,2013-11-16 17:13:00,
2013-11-16 12:18:00,59.1,47.7,30.20,ESE,105,1.0,2.0,66,0.00,,,0.00,Wunderground v.1.15,2013-11-16 17:18:00,
2013-11-16 12:23:00,59.4,47.6,30.20,East,95,0.0,1.0,65,0.00,,,0.00,Wunderground v.1.15,2013-11-16 17:23:00,
2013-11-16 12:28:00,59.5,47.7,30.19,ESE,102,0.0,2.0,65,0.00,,,0.00,Wunderground v.1.15,2013-11-16 17:28:00,
2013-11-16 12:34:00,59.6,47.4,30.19,East,101,1.0,2.0,64,0.00,,,0.00,Wunderground v.1.15,2013-11-16 17:34:00,
2013-11-16 12:39:00,59.6,47.8,30.19,NNE,30,1.0,2.0,65,0.00,,,0.00,Wunderground v.1.15,2013-11-16 17:39:00,
2013-11-16 12:44:00,59.7,47.9,30.19,SE,134,0.0,1.0,65,0.00,,,0.00,Wunderground v.1.15,2013-11-16 17:44:00,
2013-11-16 12:49:00,59.9,48.1,30.18,SE,134,0.0,1.0,65,0.00,,,0.00,Wunderground v.1.15,2013-11-16 17:49:00,
2013-11-16 12:55:00,60.3,47.6,30.18,ESE,111,0.0,2.0,63,0.00,,,0.00,Wunderground v.1.15,2013-11-16 17:55:00,
2013-11-16 13:00:00,60.6,47.9,30.18,North,5,0.0,0.0,63,0.00,,,0.00,Wunderground v.1.15,2013-11-16 18:00:00,
2013-11-16 13:06:00,60.8,48.1,30.18,South,176,1.0,1.0,63,0.00,,,0.00,Wunderground v.1.15,2013-11-16 18:06:00,
2013-11-16 13:11:00,60.9,47.8,30.17,SSE,149,1.0,1.0,62,0.00,,,0.00,Wunderground v.1.15,2013-11-16 18:11:00,
2013-11-16 13:17:00,60.9,47.8,30.17,SE,130,1.0,2.0,62,0.00,,,0.00,Wunderground v.1.15,2013-11-16 18:17:00,
2013-11-16 13:22:00,61.0,47.9,30.17,ESE,111,1.0,1.0,62,0.00,,,0.00,Wunderground v.1.15,2013-11-16 18:22:00,
2013-11-16 13:27:00,61.1,47.5,30.16,SSW,201,0.0,3.0,61,0.00,,,0.00,Wunderground v.1.15,2013-11-16 18:27:00,
2013-11-16 13:33:00,61.2,48.1,30.16,ESE,109,1.0,3.0,62,0.00,,,0.00,Wunderground v.1.15,2013-11-16 18:33:00,
2013-11-16 13:38:00,61.1,48.0,30.15,ESE,117,1.0,3.0,62,0.00,,,0.00,Wunderground v.1.15,2013-11-16 18:38:00,
2013-11-16 13:43:00,61.1,48.4,30.15,SSE,157,1.0,1.0,63,0.00,,,0.00,Wunderground v.1.15,2013-11-16 18:43:00,
2013-11-16 13:48:00,61.2,48.1,30.15,SSW,200,1.0,1.0,62,0.00,,,0.00,Wunderground v.1.15,2013-11-16 18:48:00,
2013-11-16 13:54:00,61.2,47.6,30.15,ESE,109,1.0,2.0,61,0.00,,,0.00,Wunderground v.1.15,2013-11-16 18:54:00,
2013-11-16 13:59:00,61.1,48.0,30.14,East,92,1.0,2.0,62,0.00,,,0.00,Wunderground v.1.15,2013-11-16 18:59:00,
2013-11-16 14:04:00,61.0,47.9,30.14,South,176,0.0,1.0,62,0.00,,,0.00,Wunderground v.1.15,2013-11-16 19:04:00,
2013-11-16 14:10:00,61.0,48.3,30.14,SSE,150,0.0,1.0,63,0.00,,,0.00,Wunderground v.1.15,2013-11-16 19:10:00,
2013-11-16 14:15:00,61.0,47.9,30.14,ESE,113,1.0,4.0,62,0.00,,,0.00,Wunderground v.1.15,2013-11-16 19:15:00,
2013-11-16 14:20:00,60.9,47.8,30.14,East,98,1.0,1.0,62,0.00,,,0.00,Wunderground v.1.15,2013-11-16 19:20:00,
2013-11-16 14:26:00,61.0,47.9,30.14,SE,136,1.0,2.0,62,0.00,,,0.00,Wunderground v.1.15,2013-11-16 19:26:00,
2013-11-16 14:32:00,61.0,47.9,30.14,ESE,114,0.0,0.0,62,0.00,,,0.00,Wunderground v.1.15,2013-11-16 19:32:00,
2013-11-16 14:37:00,61.1,48.0,30.14,SE,140,0.0,1.0,62,0.00,,,0.00,Wunderground v.1.15,2013-11-16 19:37:00,
2013-11-16 14:42:00,61.1,48.0,30.14,SE,140,0.0,0.0,62,0.00,,,0.00,Wunderground v.1.15,2013-11-16 19:42:00,
2013-11-16 14:47:00,61.2,48.5,30.14,SE,140,0.0,0.0,63,0.00,,,0.00,Wunderground v.1.15,2013-11-16 19:47:00,
2013-11-16 14:53:00,61.3,48.6,30.14,SE,137,0.0,1.0,63,0.00,,,0.00,Wunderground v.1.15,2013-11-16 19:53:00,
2013-11-16 14:58:00,61.2,48.1,30.14,ESE,114,0.0,2.0,62,0.00,,,0.00,Wunderground v.1.15,2013-11-16 19:58:00,
2013-11-16 15:03:00,61.2,48.1,30.14,ESE,106,1.0,2.0,62,0.00,,,0.00,Wunderground v.1.15,2013-11-16 20:03:00,
2013-11-16 15:09:00,61.3,48.6,30.14,ESE,106,0.0,2.0,63,0.00,,,0.00,Wunderground v.1.15,2013-11-16 20:09:00,
2013-11-16 15:14:00,61.2,48.1,30.13,ESE,106,0.0,2.0,62,0.00,,,0.00,Wunderground v.1.15,2013-11-16 20:14:00,
2013-11-16 15:19:00,61.3,48.6,30.13,ESE,106,0.0,2.0,63,0.00,,,0.00,Wunderground v.1.15,2013-11-16 20:19:00,
2013-11-16 15:24:00,61.2,48.9,30.13,ESE,106,0.0,0.0,64,0.00,,,0.00,Wunderground v.1.15,2013-11-16 20:24:00,
2013-11-16 15:30:00,61.2,48.5,30.13,ESE,106,0.0,0.0,63,0.00,,,0.00,Wunderground v.1.15,2013-11-16 20:30:00,
2013-11-16 15:35:00,61.1,48.0,30.13,SSW,195,0.0,1.0,62,0.00,,,0.00,Wunderground v.1.15,2013-11-16 20:35:00,
2013-11-16 15:40:00,61.1,48.0,30.13,SE,143,0.0,0.0,62,0.00,,,0.00,Wunderground v.1.15,2013-11-16 20:40:00,
2013-11-16 15:46:00,61.1,49.2,30.13,SE,143,0.0,0.0,65,0.00,,,0.00,Wunderground v.1.15,2013-11-16 20:46:00,
2013-11-16 15:52:00,61.0,49.6,30.13,SE,143,0.0,0.0,66,0.00,,,0.00,Wunderground v.1.15,2013-11-16 20:52:00,
2013-11-16 15:57:00,60.9,48.6,30.13,SE,143,0.0,0.0,64,0.00,,,0.00,Wunderground v.1.15,2013-11-16 20:57:00,
2013-11-16 16:02:00,60.7,49.3,30.13,SE,143,0.0,0.0,66,0.00,,,0.00,Wunderground v.1.15,2013-11-16 21:02:00,
2013-11-16 16:08:00,60.5,49.1,30.13,SE,143,0.0,0.0,66,0.00,,,0.00,Wunderground v.1.15,2013-11-16 21:08:00,
2013-11-16 16:13:00,60.2,48.8,30.13,SE,143,0.0,0.0,66,0.00,,,0.00,Wunderground v.1.15,2013-11-16 21:13:00,
2013-11-16 16:18:00,59.7,48.7,30.13,SE,143,0.0,0.0,67,0.00,,,0.00,Wunderground v.1.15,2013-11-16 21:18:00,
2013-11-16 16:24:00,59.3,48.7,30.12,SE,143,0.0,0.0,68,0.00,,,0.00,Wunderground v.1.15,2013-11-16 21:24:00,
2013-11-16 16:29:00,58.9,48.4,30.11,SE,143,0.0,0.0,68,0.00,,,0.00,Wunderground v.1.15,2013-11-16 21:29:00,
2013-11-16 16:34:00,58.5,48.7,30.12,SE,143,0.0,0.0,70,0.00,,,0.00,Wunderground v.1.15,2013-11-16 21:34:00,
2013-11-16 16:39:00,58.1,48.7,30.12,SE,143,0.0,0.0,71,0.00,,,0.00,Wunderground v.1.15,2013-11-16 21:39:00,
2013-11-16 16:45:00,57.5,48.2,30.11,SE,143,0.0,0.0,71,0.00,,,0.00,Wunderground v.1.15,2013-11-16 21:45:00,
2013-11-16 16:50:00,57.0,48.1,30.11,SE,143,0.0,0.0,72,0.00,,,0.00,Wunderground v.1.15,2013-11-16 21:50:00,
2013-11-16 16:55:00,56.6,48.0,30.11,SE,143,0.0,0.0,73,0.00,,,0.00,Wunderground v.1.15,2013-11-16 21:55:00,
2013-11-16 17:00:00,56.2,47.7,30.12,SE,143,0.0,0.0,73,0.00,,,0.00,Wunderground v.1.15,2013-11-16 22:00:00,
2013-11-16 17:06:00,55.8,47.6,30.12,SE,143,0.0,0.0,74,0.00,,,0.00,Wunderground v.1.15,2013-11-16 22:06:00,
2013-11-16 17:11:00,55.4,47.2,30.12,SE,143,0.0,0.0,74,0.00,,,0.00,Wunderground v.1.15,2013-11-16 22:11:00,
2013-11-16 17:16:00,55.0,47.2,30.12,SE,143,0.0,0.0,75,0.00,,,0.00,Wunderground v.1.15,2013-11-16 22:16:00,
2013-11-16 17:21:00,54.6,47.2,30.13,SE,143,0.0,0.0,76,0.00,,,0.00,Wunderground v.1.15,2013-11-16 22:21:00,
2013-11-16 17:27:00,54.4,47.3,30.13,SE,143,0.0,0.0,77,0.00,,,0.00,Wunderground v.1.15,2013-11-16 22:27:00,
2013-11-16 17:32:00,54.1,47.0,30.12,SE,143,0.0,0.0,77,0.00,,,0.00,Wunderground v.1.15,2013-11-16 22:32:00,
2013-11-16 17:37:00,53.9,47.2,30.13,SE,143,0.0,0.0,78,0.00,,,0.00,Wunderground v.1.15,2013-11-16 22:37:00,
2013-11-16 17:42:00,53.7,47.0,30.13,SE,143,0.0,0.0,78,0.00,,,0.00,Wunderground v.1.15,2013-11-16 22:42:00,
2013-11-16 17:48:00,53.4,46.7,30.12,SE,143,0.0,0.0,78,0.00,,,0.00,Wunderground v.1.15,2013-11-16 22:48:00,
2013-11-16 17:53:00,53.1,46.8,30.11,SE,143,0.0,0.0,79,0.00,,,0.00,Wunderground v.1.15,2013-11-16 22:53:00,
2013-11-16 17:58:00,53.0,46.7,30.12,SE,143,0.0,0.0,79,0.00,,,0.00,Wunderground v.1.15,2013-11-16 22:58:00,
2013-11-16 18:04:00,52.7,46.7,30.12,SE,143,0.0,0.0,80,0.00,,,0.00,Wunderground v.1.15,2013-11-16 23:04:00,
2013-11-16 18:10:00,52.4,46.4,30.13,SE,143,0.0,0.0,80,0.00,,,0.00,Wunderground v.1.15,2013-11-16 23:10:00,
2013-11-16 18:15:00,52.2,46.5,30.13,SE,143,0.0,0.0,81,0.00,,,0.00,Wunderground v.1.15,2013-11-16 23:15:00,
2013-11-16 18:20:00,52.0,46.3,30.12,SE,143,0.0,0.0,81,0.00,,,0.00,Wunderground v.1.15,2013-11-16 23:20:00,
2013-11-16 18:26:00,51.8,46.5,30.12,SE,143,0.0,0.0,82,0.00,,,0.00,Wunderground v.1.15,2013-11-16 23:26:00,
2013-11-16 18:31:00,51.6,46.3,30.12,SE,143,0.0,0.0,82,0.00,,,0.00,Wunderground v.1.15,2013-11-16 23:31:00,
2013-11-16 18:37:00,51.5,46.2,30.12,SE,143,0.0,0.0,82,0.00,,,0.00,Wunderground v.1.15,2013-11-16 23:37:00,
2013-11-16 18:42:00,51.4,46.4,30.12,SE,143,0.0,0.0,83,0.00,,,0.00,Wunderground v.1.15,2013-11-16 23:42:00,
2013-11-16 18:47:00,51.3,46.3,30.12,SE,143,0.0,0.0,83,0.00,,,0.00,Wunderground v.1.15,2013-11-16 23:47:00,
2013-11-16 18:52:00,51.1,46.1,30.12,SE,143,0.0,0.0,83,0.00,,,0.00,Wunderground v.1.15,2013-11-16 23:52:00,
2013-11-16 18:58:00,51.0,46.3,30.11,SE,143,0.0,0.0,84,0.00,,,0.00,Wunderground v.1.15,2013-11-16 23:58:00,
2013-11-16 19:03:00,50.8,46.1,30.11,SE,143,0.0,0.0,84,0.00,,,0.00,Wunderground v.1.15,2013-11-17 00:03:00,
2013-11-16 19:09:00,50.8,46.1,30.11,SE,143,0.0,0.0,84,0.00,,,0.00,Wunderground v.1.15,2013-11-17 00:09:00,
2013-11-16 19:14:00,50.7,46.4,30.11,SE,143,0.0,0.0,85,0.00,,,0.00,Wunderground v.1.15,2013-11-17 00:14:00,
2013-11-16 19:19:00,50.6,46.3,30.11,SE,143,0.0,0.0,85,0.00,,,0.00,Wunderground v.1.15,2013-11-17 00:19:00,
2013-11-16 19:25:00,50.4,46.1,30.11,SE,143,0.0,0.0,85,0.00,,,0.00,Wunderground v.1.15,2013-11-17 00:25:00,
2013-11-16 19:30:00,50.5,46.2,30.11,SE,143,0.0,0.0,85,0.00,,,0.00,Wunderground v.1.15,2013-11-17 00:30:00,
2013-11-16 19:35:00,50.7,46.7,30.10,SE,143,0.0,0.0,86,0.00,,,0.00,Wunderground v.1.15,2013-11-17 00:35:00,
2013-11-16 19:40:00,51.0,47.0,30.10,SE,143,0.0,0.0,86,0.00,,,0.00,Wunderground v.1.15,2013-11-17 00:40:00,
2013-11-16 19:46:00,51.3,46.9,30.10,SE,143,0.0,0.0,85,0.00,,,0.00,Wunderground v.1.15,2013-11-17 00:46:00,
2013-11-16 19:52:00,51.7,47.0,30.10,SE,143,0.0,0.0,84,0.00,,,0.00,Wunderground v.1.15,2013-11-17 00:52:00,
2013-11-16 19:57:00,51.9,47.2,30.10,SE,143,0.0,0.0,84,0.00,,,0.00,Wunderground v.1.15,2013-11-17 00:57:00,
2013-11-16 20:02:00,52.3,47.6,30.10,SE,143,0.0,0.0,84,0.00,,,0.00,Wunderground v.1.15,2013-11-17 01:02:00,
2013-11-16 20:08:00,52.7,47.7,30.10,WSW,250,0.0,1.0,83,0.00,,,0.00,Wunderground v.1.15,2013-11-17 01:08:00,
2013-11-16 20:13:00,53.1,47.7,30.10,WSW,250,0.0,0.0,82,0.00,,,0.00,Wunderground v.1.15,2013-11-17 01:13:00,
2013-11-16 20:18:00,53.2,47.8,30.10,WSW,250,0.0,0.0,82,0.00,,,0.00,Wunderground v.1.15,2013-11-17 01:18:00,
2013-11-16 20:23:00,53.5,47.8,30.10,SSW,205,0.0,0.0,81,0.00,,,0.00,Wunderground v.1.15,2013-11-17 01:23:00,
2013-11-16 20:29:00,53.9,47.9,30.09,SSW,205,0.0,0.0,80,0.00,,,0.00,Wunderground v.1.15,2013-11-17 01:29:00,
2013-11-16 20:34:00,54.4,48.0,30.09,SSW,202,0.0,2.0,79,0.00,,,0.00,Wunderground v.1.15,2013-11-17 01:34:00,
2013-11-16 20:39:00,54.5,47.8,30.10,SE,134,0.0,2.0,78,0.00,,,0.00,Wunderground v.1.15,2013-11-17 01:39:00,
2013-11-16 20:45:00,54.5,47.8,30.10,ESE,104,0.0,0.0,78,0.00,,,0.00,Wunderground v.1.15,2013-11-17 01:45:00,
2013-11-16 20:50:00,54.5,47.8,30.09,East,98,0.0,0.0,78,0.00,,,0.00,Wunderground v.1.15,2013-11-17 01:50:00,
2013-11-16 20:56:00,54.6,47.5,30.09,East,98,0.0,0.0,77,0.00,,,0.00,Wunderground v.1.15,2013-11-17 01:56:00,
2013-11-16 21:02:00,54.6,47.5,30.09,East,98,0.0,0.0,77,0.00,,,0.00,Wunderground v.1.15,2013-11-17 02:02:00,
2013-11-16 21:07:00,54.6,47.5,30.09,East,98,0.0,0.0,77,0.00,,,0.00,Wunderground v.1.15,2013-11-17 02:07:00,
2013-11-16 21:12:00,54.5,47.8,30.09,East,98,0.0,0.0,78,0.00,,,0.00,Wunderground v.1.15,2013-11-17 02:12:00,
2013-11-16 21:17:00,54.3,47.6,30.09,East,98,0.0,0.0,78,0.00,,,0.00,Wunderground v.1.15,2013-11-17 02:17:00,
2013-11-16 21:23:00,54.1,47.4,30.08,East,98,0.0,0.0,78,0.00,,,0.00,Wunderground v.1.15,2013-11-17 02:23:00,
2013-11-16 21:28:00,53.9,47.2,30.08,East,98,0.0,0.0,78,0.00,,,0.00,Wunderground v.1.15,2013-11-17 02:28:00,
2013-11-16 21:33:00,53.8,47.4,30.08,East,98,0.0,0.0,79,0.00,,,0.00,Wunderground v.1.15,2013-11-17 02:33:00,
2013-11-16 21:38:00,53.9,47.5,30.07,ESE,111,0.0,0.0,79,0.00,,,0.00,Wunderground v.1.15,2013-11-17 02:38:00,
2013-11-16 21:44:00,53.9,47.5,30.08,ESE,110,0.0,0.0,79,0.00,,,0.00,Wunderground v.1.15,2013-11-17 02:44:00,
2013-11-16 21:49:00,54.1,47.4,30.07,East,84,0.0,2.0,78,0.00,,,0.00,Wunderground v.1.15,2013-11-17 02:49:00,
2013-11-16 21:54:00,54.4,47.7,30.07,SSE,163,0.0,3.0,78,0.00,,,0.00,Wunderground v.1.15,2013-11-17 02:54:00,
2013-11-16 22:00:00,54.2,47.1,30.07,SSE,163,0.0,0.0,77,0.00,,,0.00,Wunderground v.1.15,2013-11-17 03:00:00,
2013-11-16 22:06:00,53.7,47.0,30.07,SSE,163,0.0,0.0,78,0.00,,,0.00,Wunderground v.1.15,2013-11-17 03:06:00,
2013-11-16 22:11:00,53.3,47.0,30.07,SSE,163,0.0,0.0,79,0.00,,,0.00,Wunderground v.1.15,2013-11-17 03:11:00,
2013-11-16 22:16:00,52.8,46.8,30.07,SSE,163,0.0,0.0,80,0.00,,,0.00,Wunderground v.1.15,2013-11-17 03:16:00,
2013-11-16 22:21:00,52.6,46.9,30.07,SSE,163,0.0,0.0,81,0.00,,,0.00,Wunderground v.1.15,2013-11-17 03:21:00,
2013-11-16 22:27:00,52.4,46.7,30.07,SSE,163,0.0,0.0,81,0.00,,,0.00,Wunderground v.1.15,2013-11-17 03:27:00,
2013-11-16 22:32:00,52.2,46.5,30.06,SSE,163,0.0,0.0,81,0.00,,,0.00,Wunderground v.1.15,2013-11-17 03:32:00,
2013-11-16 22:37:00,51.9,46.6,30.06,SSE,163,0.0,0.0,82,0.00,,,0.00,Wunderground v.1.15,2013-11-17 03:37:00,
2013-11-16 22:43:00,51.6,46.6,30.07,SSE,163,0.0,0.0,83,0.00,,,0.00,Wunderground v.1.15,2013-11-17 03:43:00,
2013-11-16 22:48:00,51.4,46.1,30.07,SSE,163,0.0,0.0,82,0.00,,,0.00,Wunderground v.1.15,2013-11-17 03:48:00,
2013-11-16 22:53:00,51.1,46.1,30.06,SSE,163,0.0,0.0,83,0.00,,,0.00,Wunderground v.1.15,2013-11-17 03:53:00,
2013-11-16 22:59:00,50.7,45.7,30.05,SSE,163,0.0,0.0,83,0.00,,,0.00,Wunderground v.1.15,2013-11-17 03:59:00,
2013-11-16 23:04:00,50.3,45.6,30.05,SSE,163,0.0,0.0,84,0.00,,,0.00,Wunderground v.1.15,2013-11-17 04:04:00,
2013-11-16 23:09:00,50.3,46.3,30.05,SSE,163,0.0,0.0,86,0.00,,,0.00,Wunderground v.1.15,2013-11-17 04:09:00,
2013-11-16 23:15:00,50.5,46.2,30.05,South,176,0.0,0.0,85,0.00,,,0.00,Wunderground v.1.15,2013-11-17 04:15:00,
2013-11-16 23:20:00,50.6,46.6,30.05,South,176,0.0,0.0,86,0.00,,,0.00,Wunderground v.1.15,2013-11-17 04:20:00,
2013-11-16 23:26:00,50.8,46.1,30.05,SSE,167,0.0,0.0,84,0.00,,,0.00,Wunderground v.1.15,2013-11-17 04:26:00,
2013-11-16 23:31:00,51.3,46.9,30.05,South,177,0.0,0.0,85,0.00,,,0.00,Wunderground v.1.15,2013-11-17 04:31:00,
2013-11-16 23:37:00,51.9,46.9,30.05,South,174,0.0,0.0,83,0.00,,,0.00,Wunderground v.1.15,2013-11-17 04:37:00,
2013-11-16 23:42:00,52.3,47.3,30.05,SSW,205,0.0,1.0,83,0.00,,,0.00,Wunderground v.1.15,2013-11-17 04:42:00,
2013-11-16 23:47:00,52.6,46.9,30.05,SSE,151,0.0,1.0,81,0.00,,,0.00,Wunderground v.1.15,2013-11-17 04:47:00,
2013-11-16 23:53:00,52.9,47.2,30.06,SSW,200,0.0,1.0,81,0.00,,,0.00,Wunderground v.1.15,2013-11-17 04:53:00,
2013-11-16 23:58:00,52.8,46.8,30.05,SSW,200,0.0,1.0,80,0.00,,,0.00,Wunderground v.1.15,2013-11-17 04:58:00,